Weather History for Watertown, SD

Change the Weather History Date:

Tuesday, December 24, 2013

  Actual Average Record
Temperature  
Mean Temperature 1 °F 14 °F  
Max Temperature 20 °F 23 °F 44 °F (1963)
Min Temperature -19 °F 5 °F -28 °F (1983)
Degree Days  
Heating Degree Days 64 51  
Month to date heating degree days 1378 1156  
Since 1 July heating degree days 3216 3096  
Cooling Degree Days 0 0  
Month to date cooling degree days 0 0  
Year to date cooling degree days 618 515  
Moisture  
Dew Point 5 °F    
Average Humidity 82    
Maximum Humidity 100    
Minimum Humidity 64    
Precipitation  
Precipitation 0.06 in 0.01 in 0.40 in (1973)
Month to date precipitation 0.35 0.41  
Year to date precipitation 24.50 21.96  
Snow  
Snow 0.00 in - - ()
Month to date snowfall 5.6  
Since 1 July snowfall 5.9  
Snow Depth 5.00 in    
Sea Level Pressure  
Sea Level Pressure 30.09 in    
Wind  
Wind Speed 14 mph (SSW)    
Max Wind Speed 26 mph    
Max Gust Speed 33 mph    
Visibility 5 miles    
Events Fog , Snow    
T = Trace of Precipitation, MM = Missing Value Source: NWS Daily Summary

Daily Weather History Graph

Daily Weather History Graph

Search for Another Location

Airport:

Trip Planner

Search our weather history database for the weather conditions in past years. The results will help you decide how hot, cold, wet, or windy it might be!

Date:

Astronomy

Dec. 24, 2013 Rise Set
Actual Time 8:04 AM CST 4:51 PM CST
Civil Twilight 7:31 AM CST 5:25 PM CST
Nautical Twilight 6:53 AM CST 6:02 PM CST
Astronomical Twilight 6:18 AM CST 6:38 PM CST
Moon No Moon Rise 11:42 AM CST (12/24)
Length of Visible Light 9h 54m
Length of Day
8h 47m
Waning Gibbous, 58% of the Moon is Illuminated
Dec 24
Waning Gibbous
Dec 25
Last Quarter
Jan 1
New
Jan 7
First Quarter
Jan 15
Full

Hourly Weather History & Observations

Time (CST) Temp. Windchill Dew Point Humidity Pressure Visibility Wind Dir Wind Speed Gust Speed Precip Events Conditions
12:53 AM -18.0 °F -39.7 °F -22.0 °F 82% 30.49 in 10.0 mi SSE 11.5 mph - N/A   Clear
1:53 AM -15.0 °F -35.9 °F -20.0 °F 78% 30.43 in 10.0 mi SSE 11.5 mph - N/A   Clear
2:53 AM -11.0 °F -32.7 °F -17.0 °F 75% 30.40 in 10.0 mi SSE 13.8 mph - N/A   Clear
3:53 AM -9.0 °F -30.9 °F -15.0 °F 75% 30.35 in 10.0 mi SSE 15.0 mph - N/A   Clear
4:53 AM -8.0 °F -29.6 °F -15.0 °F 71% 30.30 in 10.0 mi SSE 15.0 mph 23.0 mph N/A   Clear
5:53 AM -6.0 °F -30.2 °F -14.1 °F 68% 30.27 in 10.0 mi SSE 20.7 mph - N/A   Clear
6:53 AM -2.9 °F -25.6 °F -9.9 °F 72% 30.22 in 10.0 mi SSE 19.6 mph - N/A   Scattered Clouds
7:53 AM -0.0 °F -23.3 °F -6.0 °F 76% 30.22 in 9.0 mi South 23.0 mph 31.1 mph 0.00 in   Overcast
8:23 AM 1.4 °F -19.9 °F -5.8 °F 72% 30.03 in 9.0 mi South 19.6 mph 29.9 mph N/A   Overcast
8:32 AM 1.4 °F -20.5 °F -4.0 °F 78% 30.02 in 10.0 mi SSE 20.7 mph - N/A   Overcast
8:49 AM 1.4 °F -21.4 °F -4.0 °F 78% 30.02 in 8.0 mi South 23.0 mph 28.8 mph N/A   Overcast
8:53 AM 1.9 °F -20.2 °F -2.9 °F 80% 30.19 in 8.0 mi South 21.9 mph 28.8 mph N/A   Overcast
9:32 AM 5.0 °F -17.1 °F 1.4 °F 85% 30.00 in 5.0 mi South 24.2 mph 31.1 mph N/A   Overcast
9:53 AM 6.1 °F -15.2 °F 1.9 °F 83% 30.17 in 4.0 mi South 23.0 mph 31.1 mph N/A   Overcast
10:53 AM 8.1 °F -11.2 °F 3.9 °F 83% 30.17 in 2.5 mi South 19.6 mph 25.3 mph 0.00 in Snow Light Snow
11:01 AM 8.6 °F -7.0 °F 3.2 °F 79% 30.02 in 2.0 mi South 12.7 mph 24.2 mph 0.00 in Snow Light Snow
11:09 AM 8.6 °F -6.3 °F 3.2 °F 79% 30.02 in 1.5 mi South 11.5 mph - 0.00 in Snow Light Snow
11:24 AM 8.6 °F -7.0 °F 5.0 °F 85% 30.01 in 1.2 mi South 12.7 mph - 0.00 in Snow Light Snow
11:41 AM 10.4 °F -3.3 °F 6.8 °F 85% 30.00 in 1.5 mi South 10.4 mph - 0.00 in Snow Light Snow
11:53 AM 10.9 °F -5.4 °F 7.0 °F 84% 30.15 in 2.0 mi South 15.0 mph 21.9 mph 0.00 in Snow Light Snow
12:01 PM 10.4 °F -4.1 °F 6.8 °F 85% 29.99 in 3.0 mi South 11.5 mph 24.2 mph 0.00 in Snow Light Snow
12:09 PM 10.4 °F -4.8 °F 6.8 °F 85% 30.00 in 2.5 mi South 12.7 mph - 0.00 in Snow Light Snow
12:26 PM 12.2 °F -4.8 °F 6.8 °F 79% 29.98 in 3.0 mi South 17.3 mph 23.0 mph 0.00 in Snow Light Snow
12:30 PM 12.2 °F -5.8 °F 8.6 °F 85% 29.98 in 1.8 mi South 19.6 mph - 0.00 in Snow Light Snow
12:36 PM 12.2 °F -4.8 °F 8.6 °F 85% 29.97 in 0.8 mi South 17.3 mph - 0.00 in Snow Light Snow
12:53 PM 12.0 °F -4.5 °F 8.1 °F 84% 30.11 in 1.0 mi South 16.1 mph - 0.00 in Snow Light Snow
1:02 PM 12.2 °F -3.7 °F 8.6 °F 85% 29.97 in 2.0 mi South 15.0 mph - 0.00 in Snow Light Snow
1:09 PM 12.2 °F -3.1 °F 8.6 °F 85% 29.97 in 1.2 mi South 13.8 mph - 0.00 in Snow Light Snow
1:18 PM 12.2 °F -2.5 °F 8.6 °F 85% 29.96 in 0.5 mi South 12.7 mph - 0.00 in Fog , Snow Snow
1:24 PM 12.2 °F -1.8 °F 8.6 °F 85% 29.97 in 0.2 mi South 11.5 mph - 0.01 in Fog , Snow Heavy Snow
1:38 PM 12.2 °F -1.8 °F 10.4 °F 92% 29.96 in 0.5 mi South 11.5 mph - 0.02 in Fog , Snow Snow
1:53 PM 12.9 °F 0.7 °F 10.0 °F 88% 30.11 in 0.5 mi South 9.2 mph - 0.03 in Fog , Snow Snow
2:12 PM 14.0 °F 1.2 °F 10.4 °F 86% 29.97 in 0.8 mi South 10.4 mph - 0.01 in Snow Light Snow
2:26 PM 14.0 °F 2.0 °F 10.4 °F 86% 29.97 in 0.5 mi SSW 9.2 mph - 0.01 in Fog , Snow Snow
2:53 PM 14.0 °F 3.9 °F 12.0 °F 92% 30.10 in 1.0 mi South 6.9 mph - 0.03 in Snow Light Snow
3:14 PM 15.8 °F 3.4 °F 12.2 °F 86% 29.99 in 0.8 mi SSW 10.4 mph - 0.00 in Snow Light Snow
3:33 PM 15.8 °F 3.4 °F 12.2 °F 86% 29.99 in 1.0 mi SSW 10.4 mph - 0.00 in Snow Light Snow
3:53 PM 15.1 °F 4.2 °F 12.0 °F 88% 30.12 in 1.2 mi SSW 8.1 mph - 0.00 in Snow Light Snow
3:56 PM 15.8 °F 4.2 °F 12.2 °F 86% 29.99 in 1.5 mi SSW 9.2 mph - 0.00 in Snow Light Snow
4:07 PM 15.8 °F 6.1 °F 12.2 °F 86% 30.00 in 1.8 mi SSW 6.9 mph - 0.00 in Snow Light Snow
4:20 PM 15.8 °F 6.1 °F 12.2 °F 86% 30.00 in 2.0 mi SW 6.9 mph - 0.00 in Snow Light Snow
4:34 PM 15.8 °F 7.2 °F 12.2 °F 86% 30.00 in 5.0 mi WSW 5.8 mph - 0.00 in   Overcast
4:53 PM 16.0 °F 6.3 °F 12.9 °F 88% 30.14 in 8.0 mi WSW 6.9 mph - 0.00 in   Overcast
5:04 PM 15.8 °F 6.1 °F 12.2 °F 86% 30.02 in 8.0 mi West 6.9 mph - N/A   Overcast
5:53 PM 14.0 °F -0.8 °F 10.9 °F 88% 30.17 in 9.0 mi WNW 13.8 mph - N/A   Overcast
6:05 PM 14.0 °F 0.5 °F 10.4 °F 86% 30.04 in 10.0 mi NW 11.5 mph - N/A   Overcast
6:39 PM 12.2 °F -1.0 °F 8.6 °F 85% 30.04 in 10.0 mi NW 10.4 mph - N/A   Overcast
6:53 PM 12.9 °F -2.2 °F 9.0 °F 84% 30.18 in 10.0 mi NW 13.8 mph - N/A   Overcast
7:03 PM 12.2 °F -2.5 °F 8.6 °F 85% 30.06 in 10.0 mi WNW 12.7 mph - N/A   Overcast
7:30 PM 12.2 °F -0.2 °F 10.4 °F 92% 30.05 in 2.0 mi NW 9.2 mph - N/A   Overcast
7:43 PM 12.2 °F 2.9 °F 10.4 °F 92% 30.06 in 4.0 mi NW 5.8 mph - N/A   Overcast
7:53 PM 12.9 °F 2.6 °F 12.0 °F 96% 30.18 in 5.0 mi WNW 6.9 mph - N/A   Overcast
8:26 PM 14.0 °F 2.9 °F 12.2 °F 93% 30.06 in 6.0 mi West 8.1 mph - N/A   Overcast
8:53 PM 14.0 °F 2.9 °F 12.9 °F 95% 30.17 in 7.0 mi WNW 8.1 mph - N/A   Overcast
9:53 PM 14.0 °F 2.9 °F 12.0 °F 92% 30.17 in 10.0 mi West 8.1 mph - N/A   Overcast
10:53 PM 18.0 °F 5.4 °F 15.1 °F 88% 30.15 in 10.0 mi West 11.5 mph - N/A   Overcast
11:53 PM 19.0 °F 9.0 °F 17.1 °F 92% 30.14 in 10.0 mi WSW 8.1 mph - N/A   Overcast